GW7758 Weather Reports


time (UTC)temp
C
wind
direction
speed
KPH
gust
KPH
rain 1hr
cm
rain 24hr
cm
rain mn
cm
humidity
%
barometer
mb
20260903022955 15 114 1.6 3.2 0.00 0.00 0.00 78 1024.5
20260903021957 15 103 0.0 3.2 0.00 0.00 0.00 78 1024.5
20260903020959 15 0.0 1.6 0.00 0.00 0.00 78 1024.5
20260903015957 15 1.6 3.2 0.00 0.00 0.00 78 1024.5
20260903014954 16 0.0 3.2 0.00 0.00 0.00 76 1024.4
20260903013957 16 0.0 1.6 0.00 0.00 0.00 76 1024.4
20260903012957 16 0.0 3.2 0.00 0.00 0.00 74 1024.4
20260903011959 16 115 0.0 3.2 0.00 0.00 0.00 74 1024.4
20260903010958 16 1.6 4.8 0.00 0.00 0.00 74 1024.4
20260903005959 16 1.6 3.2 0.00 0.00 0.00 72 1024.3
20260903004955 17 0.0 3.2 0.00 0.00 0.00 69 1024.2
20260903003956 17 275 1.6 4.8 0.00 0.00 0.00 68 1024.2
20260903001957 17 220 1.6 8.0 0.00 0.00 0.00 67 1024.3
20260903000958 17 166 1.6 4.8 0.00 0.00 0.00 66 1024.3
20260902235958 18 0.0 4.8 0.00 0.00 0.00 67 1024.3
20260902234957 18 1.6 3.2 0.00 0.00 0.00 66 1024.4
20260902233957 18 188 0.0 3.2 0.00 0.00 0.00 65 1024.3
20260902233000 18 209 1.6 3.2 0.00 0.00 0.00 63 1024.4
20260902232000 18 174 1.6 3.2 0.00 0.00 0.00 62 1024.3
20260902230959 18 201 0.0 3.2 0.00 0.00 0.00 62 1024.3
20260902230000 19 135 0.0 1.6 0.00 0.00 0.00 62 1024.3
20260902223957 19 237 3.2 6.4 0.00 0.00 0.00 61 1024.3
20260902222957 19 242 1.6 4.8 0.00 0.00 0.00 61 1024.4
20260902221958 19 249 1.6 4.8 0.00 0.00 0.00 60 1024.3
20260902220957 19 256 1.6 3.2 0.00 0.00 0.00 60 1024.3
20260902215957 19 282 0.0 3.2 0.00 0.00 0.00 60 1024.2
20260902214957 19 334 0.0 3.2 0.00 0.00 0.00 60 1024.2
20260902213958 19 3.2 4.8 0.00 0.00 0.00 59 1024.1
20260902212956 20 304 3.2 4.8 0.00 0.00 0.00 59 1024.0
20260902211956 20 278 3.2 6.4 0.00 0.00 0.00 59 1024.0
20260902210959 20 299 3.2 6.4 0.00 0.00 0.00 58 1024.0
20260902205959 20 289 3.2 6.4 0.00 0.00 0.00 58 1023.8
20260902204959 20 314 3.2 9.7 0.00 0.00 0.00 57 1023.7
20260902204003 20 288 3.2 6.4 0.00 0.00 0.00 57 1023.7
20260902202957 20 306 3.2 8.0 0.00 0.00 0.00 57 1023.7
20260902202000 20 305 3.2 8.0 0.00 0.00 0.00 56 1023.7
20260902200958 20 314 3.2 6.4 0.00 0.00 0.00 55 1023.6
20260902200002 20 272 3.2 6.4 0.00 0.00 0.00 54 1023.6
20260902194958 21 289 4.8 11.3 0.00 0.00 0.00 53 1023.6
20260902194002 21 303 3.2 6.4 0.00 0.00 0.00 54 1023.5
20260902192959 21 325 3.2 9.7 0.00 0.00 0.00 53 1023.5
20260902191957 21 315 3.2 9.7 0.00 0.00 0.00 52 1023.3
20260902191001 21 299 3.2 8.0 0.00 0.00 0.00 52 1023.3
20260902190002 21 286 4.8 12.9 0.00 0.00 0.00 52 1023.2
20260902185003 22 295 4.8 12.9 0.00 0.00 0.00 51 1023.0
20260902183958 22 332 6.4 16.1 0.00 0.00 0.00 51 1022.9
20260902183004 22 270 3.2 8.0 0.00 0.00 0.00 51 1022.7
20260902181959 22 297 1.6 3.2 0.00 0.00 0.00 50 1022.6
20260902181005 22 0.0 3.2 0.00 0.00 0.00 49 1022.4
20260902175959 22 1.6 3.2 0.00 0.00 0.00 49 1022.4
20260902174957 22 302 3.2 9.7 0.00 0.00 0.00 48 1022.3
20260902174003 23 287 3.2 8.0 0.00 0.00 0.00 47 1022.0
20260902173002 23 316 3.2 8.0 0.00 0.00 0.00 46 1022.0
20260902172012 23 291 3.2 9.7 0.00 0.00 0.00 45 1022.2
20260902170958 23 299 3.2 9.7 0.00 0.00 0.00 45 1022.0
20260902165958 23 284 3.2 8.0 0.00 0.00 0.00 45 1022.0
20260902165003 23 248 4.8 11.3 0.00 0.00 0.00 43 1022.0
20260902163958 24 286 4.8 11.3 0.00 0.00 0.00 41 1022.0
20260902163002 24 269 6.4 14.5 0.00 0.00 0.00 41 1022.0
20260902162000 24 261 4.8 11.3 0.00 0.00 0.00 40 1022.0
20260902161000 25 286 6.4 17.7 0.00 0.00 0.00 40 1022.0
20260902160000 25 247 4.8 12.9 0.00 0.00 0.00 39 1021.9
20260902155000 25 242 6.4 16.1 0.00 0.00 0.00 40 1021.9
20260902154003 25 293 6.4 19.3 0.00 0.00 0.00 39 1021.9
20260902152959 25 208 6.4 17.7 0.00 0.00 0.00 40 1022.0
20260902151959 25 195 6.4 19.3 0.00 0.00 0.00 39 1022.2
20260902151005 25 272 8.0 16.1 0.00 0.00 0.00 40 1022.2
20260902150004 25 287 4.8 14.5 0.00 0.00 0.00 39 1022.2
20260902145003 25 294 8.0 17.7 0.00 0.00 0.00 39 1022.3
20260902143959 25 231 8.0 19.3 0.00 0.00 0.00 40 1022.3
20260902143005 25 219 6.4 16.1 0.00 0.00 0.00 40 1022.3
20260902142000 25 213 8.0 20.9 0.00 0.00 0.00 42 1022.3
20260902141006 25 228 8.0 22.5 0.00 0.00 0.00 42 1022.4
20260902140004 25 292 8.0 20.9 0.00 0.00 0.00 41 1022.4
20260902135010 25 204 8.0 20.9 0.00 0.00 0.00 40 1022.5
20260902134008 25 233 8.0 22.5 0.00 0.00 0.00 40 1022.5
20260902133011 25 308 9.7 20.9 0.00 0.00 0.00 39 1022.6
20260902132002 25 221 6.4 14.5 0.00 0.00 0.00 41 1022.7
20260902131011 25 253 4.8 14.5 0.00 0.00 0.00 43 1022.7
20260902130006 24 247 8.0 16.1 0.00 0.00 0.00 45 1022.7
20260902124959 25 297 8.0 19.3 0.00 0.00 0.00 42 1022.7
20260902124005 25 233 9.7 25.7 0.00 0.00 0.00 42 1022.8
20260902123004 25 225 9.7 25.7 0.00 0.00 0.00 42 1022.9
20260902122006 25 272 9.7 22.5 0.00 0.00 0.00 43 1023.1
20260902121001 25 252 8.0 25.7 0.00 0.00 0.00 42 1023.1
20260902115956 23 298 6.4 17.7 0.00 0.00 0.00 45 1023.2
20260902114955 23 277 6.4 19.3 0.00 0.00 0.00 47 1023.4
20260902113956 23 200 4.8 14.5 0.00 0.00 0.00 47 1023.3
20260902112955 23 203 4.8 14.5 0.00 0.00 0.00 48 1023.4
20260902111955 23 294 4.8 12.9 0.00 0.00 0.00 46 1023.5
20260902110954 23 223 4.8 12.9 0.00 0.00 0.00 49 1023.6
20260902105957 23 3.2 9.7 0.00 0.00 0.00 49 1023.7
20260902104954 22 233 3.2 9.7 0.00 0.00 0.00 54 1023.8
20260902103954 22 186 6.4 11.3 0.00 0.00 0.00 54 1023.8
20260902102955 22 168 4.8 11.3 0.00 0.00 0.00 55 1023.8
20260902101955 22 177 3.2 11.3 0.00 0.00 0.00 55 1024.0
20260902100953 22 102 4.8 12.9 0.00 0.00 0.00 56 1024.1
20260902094956 21 155 3.2 11.3 0.00 0.00 0.00 59 1024.2
20260902094011 20 143 4.8 12.9 0.00 0.00 0.00 59 1024.1
20260902092956 20 126 4.8 11.3 0.00 0.00 0.00 59 1024.1
20260902090954 21 65 3.2 8.0 0.00 0.00 0.00 59 1024.2
20260902085954 21 136 1.6 6.4 0.00 0.00 0.00 59 1024.2
20260902084956 20 206 1.6 9.7 0.00 0.00 0.00 61 1024.2
20260902082955 19 206 1.6 6.4 0.00 0.00 0.00 63 1024.2
20260902081954 19 235 1.6 6.4 0.00 0.00 0.00 62 1024.2
20260902080955 18 30 3.2 8.0 0.00 0.00 0.00 64 1024.0
20260902074958 18 126 3.2 9.7 0.00 0.00 0.00 64 1024.0
20260902073958 18 211 3.2 6.4 0.00 0.00 0.00 65 1024.0
20260902072959 17 217 3.2 8.0 0.00 0.00 0.00 66 1024.0
20260902071957 18 125 3.2 8.0 0.00 0.00 0.00 65 1024.1
20260902070955 17 190 3.2 6.4 0.00 0.00 0.00 67 1024.1
20260902065955 17 191 1.6 6.4 0.00 0.00 0.00 69 1024.1
20260902064959 17 182 1.6 4.8 0.00 0.00 0.00 69 1024.0
20260902062958 16 189 3.2 8.0 0.00 0.00 0.00 72 1024.0
20260902061956 16 214 3.2 6.4 0.00 0.00 0.00 74 1024.1
20260902060955 15 207 3.2 6.4 0.00 0.00 0.00 75 1024.1
20260902055957 15 131 3.2 6.4 0.00 0.00 0.00 77 1024.0
20260902054956 15 153 3.2 4.8 0.00 0.00 0.00 78 1023.8
20260902053956 14 136 3.2 6.4 0.00 0.00 0.00 80 1023.7
20260902051957 13 214 1.6 6.4 0.00 0.00 0.00 83 1023.6
20260902050959 13 184 1.6 4.8 0.00 0.00 0.00 84 1023.6
20260902045954 13 104 1.6 4.8 0.00 0.00 0.00 84 1023.6
20260902044956 13 203 1.6 4.8 0.00 0.00 0.00 85 1023.7
20260902043958 13 146 1.6 4.8 0.00 0.00 0.00 85 1023.6
20260902042958 13 116 1.6 4.8 0.00 0.00 0.00 85 1023.6
20260902041959 13 118 1.6 4.8 0.00 0.00 0.00 85 1023.5
20260902040956 13 106 1.6 3.2 0.00 0.00 0.00 83 1023.6
20260902035956 13 140 1.6 3.2 0.00 0.00 0.00 83 1023.6
20260902034955 13 191 1.6 3.2 0.00 0.00 0.00 83 1023.6
20260902033959 13 142 1.6 4.8 0.00 0.00 0.00 83 1023.6
20260902032956 13 169 1.6 4.8 0.00 0.00 0.00 83 1023.7
20260902032000 13 191 1.6 4.8 0.00 0.00 0.00 83 1023.7
20260902030957 13 144 1.6 3.2 0.00 0.00 0.00 82 1023.7
20260902025959 14 136 1.6 3.2 0.00 0.00 0.00 82 1023.7
20260902024955 14 1.6 3.2 0.00 0.00 0.00 82 1023.7
20260902023956 14 133 1.6 3.2 0.00 0.00 0.00 82 1023.8